| time (UTC) | temp F | wind direction | speed MPH | gust MPH | rain 1hr in | rain 24hr in | rain mn in | humidity % | barometer mb |
| 20260906220558 | 72 | 320 | 4.0 | 5.0 | 0.00 | 0.00 | 0.00 | 47 | 1019.5 |
| 20260906220054 | 73 | 260 | 1.0 | 3.0 | 0.00 | 0.00 | 0.00 | 48 | 1019.5 |
| 20260906215553 | 72 | 248 | 0.0 | 5.0 | 0.00 | 0.00 | 0.00 | 49 | 1019.6 |
| 20260906215051 | 71 | 201 | 1.0 | 7.0 | 0.00 | 0.00 | 0.00 | 48 | 1019.4 |
| 20260906214550 | 71 | 289 | 5.0 | 7.0 | 0.00 | 0.00 | 0.00 | 49 | 1019.5 |
| 20260906214045 | 72 | 197 | 0.0 | 3.0 | 0.00 | 0.00 | 0.00 | 49 | 1019.3 |
| 20260906213544 | 71 | 283 | 5.0 | 7.0 | 0.00 | 0.00 | 0.00 | 49 | 1019.6 |
| 20260906213038 | 73 | 310 | 5.0 | 7.0 | 0.00 | 0.00 | 0.00 | 48 | 1019.6 |
| 20260906212532 | 73 | 264 | 1.0 | 5.0 | 0.00 | 0.00 | 0.00 | 48 | 1019.5 |
| 20260906212028 | 72 | 172 | 0.0 | 7.0 | 0.00 | 0.00 | 0.00 | 48 | 1019.8 |
| 20260906211521 | 72 | 141 | 2.0 | 5.0 | 0.00 | 0.00 | 0.00 | 49 | 1019.6 |
| 20260906211017 | 71 | 260 | 2.0 | 7.0 | 0.00 | 0.00 | 0.00 | 50 | 1019.9 |
| 20260906210507 | 72 | 204 | 0.0 | 5.0 | 0.00 | 0.00 | 0.00 | 50 | 1019.7 |
| 20260906210007 | 72 | 298 | 4.0 | 7.0 | 0.00 | 0.00 | 0.00 | 49 | 1019.7 |
| 20260906205503 | 73 | 83 | 0.0 | 3.0 | 0.00 | 0.00 | 0.00 | 48 | 1019.7 |
| 20260906204958 | 72 | 260 | 0.0 | 5.0 | 0.00 | 0.00 | 0.00 | 50 | 1019.8 |
| 20260906204457 | 71 | 159 | 3.0 | 5.0 | 0.00 | 0.00 | 0.00 | 52 | 1019.7 |
| 20260906203956 | 72 | 293 | 3.0 | 5.0 | 0.00 | 0.00 | 0.00 | 51 | 1019.8 |
| 20260906203446 | 72 | 238 | 0.0 | 3.0 | 0.00 | 0.00 | 0.00 | 49 | 1019.7 |
| 20260906202944 | 71 | 295 | 3.0 | 5.0 | 0.00 | 0.00 | 0.00 | 51 | 1020.0 |
| 20260906202443 | 71 | 290 | 4.0 | 7.0 | 0.00 | 0.00 | 0.00 | 51 | 1019.8 |
| 20260906201937 | 71 | 251 | 0.0 | 7.0 | 0.00 | 0.00 | 0.00 | 52 | 1020.0 |
| 20260906201432 | 71 | 301 | 6.0 | 10.0 | 0.00 | 0.00 | 0.00 | 51 | 1020.0 |
| 20260906200926 | 73 | 226 | 0.0 | 3.0 | 0.00 | 0.00 | 0.00 | 49 | 1019.7 |
| 20260906200418 | 73 | 266 | 1.0 | 3.0 | 0.00 | 0.00 | 0.00 | 48 | 1020.1 |
| 20260906195917 | 72 | 59 | 3.0 | 7.0 | 0.00 | 0.00 | 0.00 | 49 | 1019.9 |
| 20260906195414 | 73 | 268 | 0.0 | 0.0 | 0.00 | 0.00 | 0.00 | 49 | 1020.2 |
| 20260906194910 | 71 | 283 | 5.0 | 7.0 | 0.00 | 0.00 | 0.00 | 50 | 1020.1 |
| 20260906194405 | 73 | 74 | 0.0 | 3.0 | 0.00 | 0.00 | 0.00 | 47 | 1020.3 |
| 20260906193901 | 73 | 292 | 0.0 | 0.0 | 0.00 | 0.00 | 0.00 | 48 | 1020.2 |
| 20260906193355 | 73 | 144 | 0.0 | 3.0 | 0.00 | 0.00 | 0.00 | 48 | 1019.9 |
| 20260906192851 | 72 | 264 | 1.0 | 5.0 | 0.00 | 0.00 | 0.00 | 48 | 1020.2 |
| 20260906192345 | 73 | 260 | 0.0 | 3.0 | 0.00 | 0.00 | 0.00 | 49 | 1020.2 |
| 20260906191844 | 72 | 252 | 0.0 | 3.0 | 0.00 | 0.00 | 0.00 | 48 | 1020.3 |
| 20260906191339 | 72 | 219 | 0.0 | 0.0 | 0.00 | 0.00 | 0.00 | 49 | 1020.4 |
| 20260906190839 | 71 | 224 | 0.0 | 5.0 | 0.00 | 0.00 | 0.00 | 51 | 1020.5 |
| 20260906190338 | 68 | 277 | 3.0 | 5.0 | 0.00 | 0.00 | 0.00 | 58 | 1020.1 |
| 20260906185833 | 69 | 303 | 6.0 | 10.0 | 0.00 | 0.00 | 0.00 | 56 | 1020.6 |
| 20260906185332 | 69 | 308 | 0.0 | 7.0 | 0.00 | 0.00 | 0.00 | 56 | 1020.5 |
| 20260906184826 | 70 | 236 | 0.0 | 7.0 | 0.00 | 0.00 | 0.00 | 56 | 1020.6 |
| 20260906184327 | 70 | 164 | 0.0 | 10.0 | 0.00 | 0.00 | 0.00 | 53 | 1020.6 |
| 20260906183822 | 70 | 162 | 0.0 | 5.0 | 0.00 | 0.00 | 0.00 | 53 | 1020.7 |
| 20260906183319 | 68 | 274 | 0.0 | 7.0 | 0.00 | 0.00 | 0.00 | 59 | 1020.8 |
| 20260906182818 | 68 | 214 | 0.0 | 3.0 | 0.00 | 0.00 | 0.00 | 58 | 1020.8 |
| 20260906182314 | 70 | 149 | 0.0 | 0.0 | 0.00 | 0.00 | 0.00 | 54 | 1020.8 |
| 20260906181814 | 69 | 109 | 0.0 | 0.0 | 0.00 | 0.00 | 0.00 | 55 | 1020.8 |
| 20260906181311 | 69 | 291 | 0.0 | 0.0 | 0.00 | 0.00 | 0.00 | 56 | 1020.9 |
| 20260906180806 | 68 | 134 | 0.0 | 0.0 | 0.00 | 0.00 | 0.00 | 58 | 1020.7 |
| 20260906180301 | 68 | 109 | 0.0 | 0.0 | 0.00 | 0.00 | 0.00 | 58 | 1020.8 |
| 20260906175757 | 67 | 81 | 0.0 | 0.0 | 0.00 | 0.00 | 0.00 | 59 | 1020.6 |
| 20260906175254 | 66 | 262 | 0.0 | 0.0 | 0.00 | 0.00 | 0.00 | 61 | 1020.6 |
| 20260906174752 | 68 | 261 | 0.0 | 0.0 | 0.00 | 0.00 | 0.00 | 58 | 1020.6 |
| 20260906174252 | 66 | 215 | 0.0 | 0.0 | 0.00 | 0.00 | 0.00 | 61 | 1020.7 |
| 20260906173747 | 66 | 263 | 0.0 | 0.0 | 0.00 | 0.00 | 0.00 | 60 | 1020.6 |
| 20260906173243 | 64 | 182 | 0.0 | 0.0 | 0.00 | 0.00 | 0.00 | 63 | 1020.7 |
| 20260906172742 | 63 | 299 | 0.0 | 0.0 | 0.00 | 0.00 | 0.00 | 63 | 1021.0 |
| 20260906172237 | 63 | 281 | 0.0 | 0.0 | 0.00 | 0.00 | 0.00 | 63 | 1020.8 |
| 20260906171732 | 64 | 261 | 0.0 | 0.0 | 0.00 | 0.00 | 0.00 | 61 | 1021.2 |
| 20260906171228 | 64 | 201 | 0.0 | 0.0 | 0.00 | 0.00 | 0.00 | 61 | 1020.9 |
| 20260906170724 | 65 | 229 | 0.0 | 0.0 | 0.00 | 0.00 | 0.00 | 59 | 1021.3 |
| 20260906170219 | 64 | 221 | 0.0 | 0.0 | 0.00 | 0.00 | 0.00 | 62 | 1021.2 |
| 20260906165715 | 62 | 251 | 0.0 | 0.0 | 0.00 | 0.00 | 0.00 | 63 | 1021.2 |
| 20260906165210 | 62 | 194 | 0.0 | 0.0 | 0.00 | 0.00 | 0.00 | 64 | 1021.2 |
| 20260906164709 | 64 | 278 | 0.0 | 0.0 | 0.00 | 0.00 | 0.00 | 61 | 1021.2 |
| 20260906164205 | 65 | 177 | 0.0 | 0.0 | 0.00 | 0.00 | 0.00 | 61 | 1021.2 |
| 20260906163700 | 63 | 207 | 0.0 | 0.0 | 0.00 | 0.00 | 0.00 | 63 | 1021.2 |
| 20260906163156 | 63 | 114 | 0.0 | 0.0 | 0.00 | 0.00 | 0.00 | 62 | 1021.2 |
| 20260906162653 | 62 | 179 | 0.0 | 0.0 | 0.00 | 0.00 | 0.00 | 65 | 1021.2 |
| 20260906162153 | 60 | 220 | 0.0 | 0.0 | 0.00 | 0.00 | 0.00 | 69 | 1021.3 |
| 20260906161647 | 60 | 158 | 0.0 | 0.0 | 0.00 | 0.00 | 0.00 | 69 | 1021.3 |
| 20260906161146 | 59 | 160 | 0.0 | 0.0 | 0.00 | 0.00 | 0.00 | 72 | 1021.1 |
| 20260906160646 | 59 | 143 | 0.0 | 0.0 | 0.00 | 0.00 | 0.00 | 73 | 1021.4 |
| 20260906160145 | 58 | 140 | 0.0 | 0.0 | 0.00 | 0.00 | 0.00 | 73 | 1021.2 |
| 20260906155642 | 59 | 214 | 0.0 | 0.0 | 0.00 | 0.00 | 0.00 | 78 | 1021.2 |
| 20260906155138 | 57 | 196 | 0.0 | 0.0 | 0.00 | 0.00 | 0.00 | 82 | 1021.3 |
| 20260906154633 | 55 | 164 | 0.0 | 0.0 | 0.00 | 0.00 | 0.00 | 84 | 1021.0 |
| 20260906154133 | 54 | 153 | 0.0 | 0.0 | 0.00 | 0.00 | 0.00 | 87 | 1020.9 |
| 20260906153631 | 52 | 134 | 0.0 | 0.0 | 0.00 | 0.00 | 0.00 | 89 | 1020.9 |
| 20260906153127 | 51 | 136 | 0.0 | 0.0 | 0.00 | 0.00 | 0.00 | 92 | 1020.9 |
| 20260906152621 | 50 | 130 | 0.0 | 0.0 | 0.00 | 0.00 | 0.00 | 93 | 1020.9 |
| 20260906152121 | 50 | 140 | 0.0 | 0.0 | 0.00 | 0.00 | 0.00 | 94 | 1020.9 |
| 20260906151616 | 50 | 162 | 0.0 | 0.0 | 0.00 | 0.00 | 0.00 | 95 | 1021.0 |
| 20260906151112 | 50 | 176 | 0.0 | 0.0 | 0.00 | 0.00 | 0.00 | 96 | 1020.9 |
| 20260906150607 | 49 | 214 | 0.0 | 0.0 | 0.00 | 0.00 | 0.00 | 96 | 1020.8 |
| 20260906145601 | 49 | 196 | 0.0 | 0.0 | 0.00 | 0.00 | 0.00 | 96 | 1020.8 |
| 20260906145055 | 49 | 187 | 0.0 | 0.0 | 0.00 | 0.00 | 0.00 | 96 | 1020.9 |
| 20260906144550 | 49 | 159 | 0.0 | 0.0 | 0.00 | 0.00 | 0.00 | 97 | 1020.9 |
| 20260906144046 | 48 | 163 | 0.0 | 0.0 | 0.00 | 0.00 | 0.00 | 97 | 1020.8 |
| 20260906143541 | 48 | 135 | 0.0 | 0.0 | 0.00 | 0.00 | 0.00 | 97 | 1020.7 |
| 20260906143037 | 48 | 139 | 0.0 | 0.0 | 0.00 | 0.00 | 0.00 | 97 | 1020.9 |
| 20260906142531 | 48 | 154 | 0.0 | 0.0 | 0.00 | 0.00 | 0.00 | 97 | 1021.0 |
| 20260906142027 | 48 | 145 | 0.0 | 0.0 | 0.00 | 0.00 | 0.00 | 97 | 1021.0 |
| 20260906141525 | 48 | 147 | 0.0 | 0.0 | 0.00 | 0.00 | 0.00 | 97 | 1020.7 |
| 20260906141021 | 48 | 158 | 0.0 | 0.0 | 0.00 | 0.00 | 0.00 | 97 | 1020.8 |
| 20260906140515 | 48 | 180 | 0.0 | 0.0 | 0.00 | 0.00 | 0.00 | 97 | 1020.8 |
| 20260906140014 | 48 | 213 | 0.0 | 0.0 | 0.00 | 0.00 | 0.00 | 97 | 1020.9 |
| 20260906135511 | 48 | 179 | 0.0 | 0.0 | 0.00 | 0.00 | 0.00 | 97 | 1020.7 |
| 20260906135007 | 48 | 130 | 0.0 | 0.0 | 0.00 | 0.00 | 0.00 | 97 | 1020.7 |
| 20260906134503 | 48 | 142 | 0.0 | 3.0 | 0.00 | 0.00 | 0.00 | 97 | 1020.8 |
| 20260906134003 | 47 | 144 | 0.0 | 0.0 | 0.00 | 0.00 | 0.00 | 97 | 1020.7 |
| 20260906133459 | 47 | 177 | 0.0 | 0.0 | 0.00 | 0.00 | 0.00 | 97 | 1020.7 |
| 20260906132954 | 47 | 190 | 0.0 | 0.0 | 0.00 | 0.00 | 0.00 | 97 | 1020.6 |
| 20260906132449 | 47 | 192 | 0.0 | 0.0 | 0.00 | 0.00 | 0.00 | 97 | 1020.8 |
| 20260906131944 | 47 | 192 | 0.0 | 0.0 | 0.00 | 0.00 | 0.00 | 97 | 1020.8 |
| 20260906131440 | 47 | 187 | 0.0 | 0.0 | 0.00 | 0.00 | 0.00 | 97 | 1020.6 |
| 20260906130935 | 48 | 169 | 0.0 | 0.0 | 0.00 | 0.00 | 0.00 | 97 | 1020.6 |
| 20260906130434 | 47 | 195 | 0.0 | 0.0 | 0.00 | 0.00 | 0.00 | 96 | 1020.8 |
| 20260906125929 | 48 | 178 | 0.0 | 0.0 | 0.00 | 0.00 | 0.00 | 96 | 1020.8 |
| 20260906125426 | 48 | 184 | 0.0 | 0.0 | 0.00 | 0.00 | 0.00 | 96 | 1020.7 |
| 20260906124926 | 48 | 193 | 0.0 | 0.0 | 0.00 | 0.00 | 0.00 | 96 | 1020.7 |
| 20260906124422 | 48 | 175 | 0.0 | 0.0 | 0.00 | 0.00 | 0.00 | 96 | 1020.9 |
| 20260906123922 | 48 | 192 | 0.0 | 0.0 | 0.00 | 0.00 | 0.00 | 96 | 1020.7 |
| 20260906123416 | 48 | 174 | 0.0 | 0.0 | 0.00 | 0.00 | 0.00 | 96 | 1020.7 |
| 20260906122915 | 49 | 142 | 0.0 | 0.0 | 0.00 | 0.00 | 0.00 | 96 | 1020.9 |
| 20260906122411 | 49 | 184 | 0.0 | 0.0 | 0.00 | 0.00 | 0.00 | 96 | 1020.8 |
| 20260906121908 | 49 | 171 | 0.0 | 0.0 | 0.00 | 0.00 | 0.00 | 96 | 1020.9 |
| 20260906121403 | 49 | 166 | 0.0 | 0.0 | 0.00 | 0.00 | 0.00 | 96 | 1020.7 |
| 20260906120859 | 49 | 186 | 0.0 | 0.0 | 0.00 | 0.00 | 0.00 | 96 | 1020.7 |
| 20260906120355 | 49 | 144 | 0.0 | 0.0 | 0.00 | 0.00 | 0.00 | 96 | 1020.6 |
| 20260906115851 | 49 | 133 | 0.0 | 0.0 | 0.00 | 0.00 | 0.00 | 96 | 1020.7 |
| 20260906115346 | 49 | 156 | 0.0 | 0.0 | 0.00 | 0.00 | 0.00 | 96 | 1020.7 |
| 20260906114845 | 49 | 171 | 0.0 | 0.0 | 0.00 | 0.00 | 0.00 | 96 | 1020.6 |
| 20260906114340 | 49 | 156 | 0.0 | 0.0 | 0.00 | 0.00 | 0.00 | 95 | 1020.6 |
| 20260906113835 | 49 | 190 | 0.0 | 0.0 | 0.00 | 0.00 | 0.00 | 95 | 1020.5 |
| 20260906113334 | 49 | 183 | 0.0 | 0.0 | 0.00 | 0.00 | 0.00 | 95 | 1020.6 |
| 20260906112830 | 49 | 149 | 0.0 | 0.0 | 0.00 | 0.00 | 0.00 | 95 | 1020.6 |
| 20260906112326 | 49 | 196 | 0.0 | 0.0 | 0.00 | 0.00 | 0.00 | 94 | 1020.8 |
| 20260906111826 | 49 | 179 | 0.0 | 0.0 | 0.00 | 0.00 | 0.00 | 94 | 1021.0 |
| 20260906111320 | 50 | 123 | 0.0 | 0.0 | 0.00 | 0.00 | 0.00 | 95 | 1021.0 |
| 20260906110815 | 50 | 129 | 0.0 | 5.0 | 0.00 | 0.00 | 0.00 | 94 | 1021.1 |
| 20260906110311 | 50 | 179 | 0.0 | 0.0 | 0.00 | 0.00 | 0.00 | 94 | 1020.9 |
| 20260906105809 | 50 | 151 | 0.0 | 0.0 | 0.00 | 0.00 | 0.00 | 94 | 1020.8 |
| 20260906105306 | 50 | 132 | 0.0 | 3.0 | 0.00 | 0.00 | 0.00 | 94 | 1021.0 |
| 20260906104801 | 50 | 160 | 0.0 | 3.0 | 0.00 | 0.00 | 0.00 | 94 | 1020.9 |
| 20260906104300 | 50 | 197 | 0.0 | 0.0 | 0.00 | 0.00 | 0.00 | 94 | 1020.9 |
| 20260906103758 | 50 | 151 | 0.0 | 0.0 | 0.00 | 0.00 | 0.00 | 94 | 1020.6 |
| 20260906103257 | 50 | 126 | 0.0 | 0.0 | 0.00 | 0.00 | 0.00 | 94 | 1020.7 |
| 20260906102754 | 50 | 157 | 0.0 | 0.0 | 0.00 | 0.00 | 0.00 | 94 | 1020.8 |
| 20260906102252 | 50 | 201 | 0.0 | 0.0 | 0.00 | 0.00 | 0.00 | 94 | 1020.8 |
| 20260906101748 | 50 | 174 | 0.0 | 0.0 | 0.00 | 0.00 | 0.00 | 94 | 1020.9 |
| 20260906101242 | 50 | 161 | 0.0 | 0.0 | 0.00 | 0.00 | 0.00 | 94 | 1020.8 |
| 20260906100738 | 50 | 144 | 0.0 | 0.0 | 0.00 | 0.00 | 0.00 | 94 | 1021.0 |
| 20260906100237 | 51 | 146 | 0.0 | 0.0 | 0.00 | 0.00 | 0.00 | 94 | 1020.9 |
| 20260906095732 | 51 | 169 | 0.0 | 0.0 | 0.00 | 0.00 | 0.00 | 94 | 1020.9 |
| 20260906095222 | 51 | 188 | 0.0 | 0.0 | 0.00 | 0.00 | 0.00 | 94 | 1020.9 |
| 20260906094721 | 51 | 136 | 0.0 | 0.0 | 0.00 | 0.00 | 0.00 | 94 | 1021.0 |
| 20260906094216 | 51 | 152 | 0.0 | 0.0 | 0.00 | 0.00 | 0.00 | 94 | 1020.9 |
| 20260906093713 | 51 | 171 | 0.0 | 0.0 | 0.00 | 0.00 | 0.00 | 94 | 1020.9 |
| 20260906093208 | 51 | 171 | 0.0 | 0.0 | 0.00 | 0.00 | 0.00 | 94 | 1020.8 |
| 20260906092703 | 51 | 172 | 0.0 | 0.0 | 0.00 | 0.00 | 0.00 | 94 | 1020.9 |
| 20260906092202 | 51 | 124 | 0.0 | 0.0 | 0.00 | 0.00 | 0.00 | 94 | 1020.8 |
| 20260906091659 | 51 | 190 | 0.0 | 0.0 | 0.00 | 0.00 | 0.00 | 94 | 1020.8 |
| 20260906091155 | 51 | 139 | 0.0 | 0.0 | 0.00 | 0.00 | 0.00 | 94 | 1020.9 |
| 20260906090651 | 50 | 192 | 0.0 | 0.0 | 0.00 | 0.00 | 0.00 | 91 | 1020.8 |
| 20260906090150 | 51 | 189 | 0.0 | 0.0 | 0.00 | 0.00 | 0.00 | 91 | 1020.9 |
| 20260906085650 | 51 | 186 | 0.0 | 0.0 | 0.00 | 0.00 | 0.00 | 91 | 1020.9 |
| 20260906085149 | 51 | 189 | 0.0 | 0.0 | 0.00 | 0.00 | 0.00 | 91 | 1020.8 |
| 20260906084644 | 51 | 184 | 0.0 | 0.0 | 0.00 | 0.00 | 0.00 | 91 | 1021.1 |
| 20260906084143 | 52 | 128 | 0.0 | 3.0 | 0.00 | 0.00 | 0.00 | 91 | 1021.1 |
| 20260906083638 | 51 | 156 | 0.0 | 0.0 | 0.00 | 0.00 | 0.00 | 91 | 1020.9 |
| 20260906083133 | 52 | 162 | 0.0 | 0.0 | 0.00 | 0.00 | 0.00 | 91 | 1021.0 |
| 20260906082629 | 51 | 184 | 0.0 | 0.0 | 0.00 | 0.00 | 0.00 | 91 | 1020.8 |
| 20260906082124 | 52 | 163 | 0.0 | 0.0 | 0.00 | 0.00 | 0.00 | 91 | 1020.8 |
| 20260906081620 | 52 | 147 | 0.0 | 0.0 | 0.00 | 0.00 | 0.00 | 91 | 1020.9 |
| 20260906081115 | 52 | 156 | 0.0 | 0.0 | 0.00 | 0.00 | 0.00 | 91 | 1020.7 |
| 20260906080611 | 52 | 176 | 0.0 | 0.0 | 0.00 | 0.00 | 0.00 | 90 | 1020.7 |
| 20260906080107 | 52 | 167 | 0.0 | 0.0 | 0.00 | 0.00 | 0.00 | 90 | 1020.7 |
| 20260906075601 | 52 | 191 | 0.0 | 0.0 | 0.00 | 0.00 | 0.00 | 89 | 1020.6 |
| 20260906075056 | 52 | 186 | 0.0 | 0.0 | 0.00 | 0.00 | 0.00 | 89 | 1020.7 |
| 20260906074551 | 52 | 163 | 0.0 | 0.0 | 0.00 | 0.00 | 0.00 | 89 | 1020.8 |
| 20260906074049 | 52 | 211 | 0.0 | 0.0 | 0.00 | 0.00 | 0.00 | 88 | 1021.0 |
| 20260906073544 | 52 | 213 | 0.0 | 0.0 | 0.00 | 0.00 | 0.00 | 88 | 1021.0 |
| 20260906073041 | 52 | 178 | 0.0 | 0.0 | 0.00 | 0.00 | 0.00 | 88 | 1020.9 |
| 20260906072535 | 52 | 187 | 0.0 | 0.0 | 0.00 | 0.00 | 0.00 | 87 | 1021.0 |
| 20260906072031 | 53 | 170 | 0.0 | 0.0 | 0.00 | 0.00 | 0.00 | 87 | 1020.9 |
| 20260906071527 | 53 | 162 | 0.0 | 0.0 | 0.00 | 0.00 | 0.00 | 87 | 1021.0 |
| 20260906071022 | 53 | 170 | 0.0 | 0.0 | 0.00 | 0.00 | 0.00 | 86 | 1021.2 |
| 20260906070519 | 53 | 200 | 0.0 | 0.0 | 0.00 | 0.00 | 0.00 | 86 | 1021.2 |
| 20260906070014 | 53 | 166 | 0.0 | 0.0 | 0.00 | 0.00 | 0.00 | 86 | 1021.0 |
| 20260906065513 | 53 | 204 | 0.0 | 0.0 | 0.00 | 0.00 | 0.00 | 85 | 1021.1 |
| 20260906065009 | 54 | 184 | 0.0 | 0.0 | 0.00 | 0.00 | 0.00 | 85 | 1021.2 |
| 20260906064505 | 54 | 194 | 0.0 | 0.0 | 0.00 | 0.00 | 0.00 | 85 | 1021.2 |
| 20260906064000 | 54 | 180 | 0.0 | 0.0 | 0.00 | 0.00 | 0.00 | 85 | 1021.2 |
| 20260906063456 | 54 | 179 | 0.0 | 0.0 | 0.00 | 0.00 | 0.00 | 85 | 1021.1 |
| 20260906062955 | 54 | 151 | 0.0 | 0.0 | 0.00 | 0.00 | 0.00 | 85 | 1021.2 |
| 20260906062451 | 54 | 142 | 0.0 | 0.0 | 0.00 | 0.00 | 0.00 | 84 | 1021.2 |
| 20260906061945 | 54 | 170 | 0.0 | 0.0 | 0.00 | 0.00 | 0.00 | 84 | 1021.3 |
| 20260906061442 | 54 | 169 | 0.0 | 0.0 | 0.00 | 0.00 | 0.00 | 84 | 1021.1 |
| 20260906060936 | 54 | 206 | 0.0 | 0.0 | 0.00 | 0.00 | 0.00 | 83 | 1021.2 |
| 20260906060433 | 55 | 162 | 0.0 | 0.0 | 0.00 | 0.00 | 0.00 | 83 | 1021.1 |
| 20260906055929 | 55 | 146 | 0.0 | 0.0 | 0.00 | 0.00 | 0.00 | 83 | 1021.0 |
| 20260906055425 | 55 | 187 | 0.0 | 0.0 | 0.00 | 0.00 | 0.00 | 82 | 1021.4 |
| 20260906054920 | 55 | 191 | 0.0 | 0.0 | 0.00 | 0.00 | 0.00 | 82 | 1021.3 |
| 20260906054415 | 55 | 204 | 0.0 | 0.0 | 0.00 | 0.00 | 0.00 | 82 | 1021.1 |
| 20260906053911 | 56 | 185 | 0.0 | 0.0 | 0.00 | 0.00 | 0.00 | 82 | 1021.3 |
| 20260906053407 | 56 | 157 | 0.0 | 0.0 | 0.00 | 0.00 | 0.00 | 81 | 1021.2 |
| 20260906052902 | 56 | 158 | 0.0 | 0.0 | 0.00 | 0.00 | 0.00 | 81 | 1021.4 |
| 20260906052358 | 56 | 181 | 0.0 | 0.0 | 0.00 | 0.00 | 0.00 | 81 | 1021.4 |
| 20260906051855 | 56 | 134 | 0.0 | 0.0 | 0.00 | 0.00 | 0.00 | 81 | 1021.4 |
| 20260906051354 | 56 | 97 | 0.0 | 0.0 | 0.00 | 0.00 | 0.00 | 80 | 1021.5 |
| 20260906050850 | 56 | 141 | 0.0 | 0.0 | 0.00 | 0.00 | 0.00 | 80 | 1021.4 |
| 20260906050345 | 56 | 205 | 0.0 | 0.0 | 0.00 | 0.00 | 0.00 | 80 | 1021.6 |
| 20260906045844 | 57 | 221 | 0.0 | 0.0 | 0.00 | 0.00 | 0.00 | 80 | 1021.3 |
| 20260906045338 | 57 | 183 | 0.0 | 0.0 | 0.00 | 0.00 | 0.00 | 80 | 1021.4 |
| 20260906044835 | 57 | 194 | 0.0 | 0.0 | 0.00 | 0.00 | 0.00 | 79 | 1021.3 |
| 20260906044335 | 57 | 175 | 0.0 | 0.0 | 0.00 | 0.00 | 0.00 | 79 | 1021.6 |
| 20260906043831 | 57 | 164 | 0.0 | 0.0 | 0.00 | 0.00 | 0.00 | 79 | 1021.6 |
| 20260906043326 | 58 | 186 | 0.0 | 0.0 | 0.00 | 0.00 | 0.00 | 78 | 1021.4 |
| 20260906042827 | 58 | 194 | 0.0 | 0.0 | 0.00 | 0.00 | 0.00 | 78 | 1021.5 |
| 20260906042325 | 58 | 177 | 0.0 | 0.0 | 0.00 | 0.00 | 0.00 | 78 | 1021.3 |
| 20260906041821 | 58 | 124 | 0.0 | 0.0 | 0.00 | 0.00 | 0.00 | 78 | 1021.5 |
| 20260906041317 | 59 | 167 | 0.0 | 0.0 | 0.00 | 0.00 | 0.00 | 78 | 1021.5 |
| 20260906040812 | 59 | 152 | 0.0 | 0.0 | 0.00 | 0.00 | 0.00 | 77 | 1021.5 |
| 20260906040307 | 59 | 154 | 0.0 | 0.0 | 0.00 | 0.00 | 0.00 | 77 | 1021.5 |
| 20260906035802 | 59 | 154 | 0.0 | 0.0 | 0.00 | 0.00 | 0.00 | 76 | 1021.5 |
| 20260906035258 | 59 | 154 | 0.0 | 0.0 | 0.00 | 0.00 | 0.00 | 76 | 1021.4 |
| 20260906034757 | 59 | 168 | 0.0 | 0.0 | 0.00 | 0.00 | 0.00 | 75 | 1021.4 |
| 20260906034252 | 60 | 189 | 0.0 | 0.0 | 0.00 | 0.00 | 0.00 | 75 | 1021.3 |
| 20260906033748 | 60 | 183 | 0.0 | 0.0 | 0.00 | 0.00 | 0.00 | 74 | 1021.5 |
| 20260906033247 | 61 | 186 | 0.0 | 0.0 | 0.00 | 0.00 | 0.00 | 74 | 1021.3 |
| 20260906032744 | 61 | 146 | 0.0 | 0.0 | 0.00 | 0.00 | 0.00 | 73 | 1021.3 |
| 20260906032244 | 61 | 181 | 0.0 | 0.0 | 0.00 | 0.00 | 0.00 | 71 | 1021.4 |
| 20260906031739 | 61 | 234 | 0.0 | 0.0 | 0.00 | 0.00 | 0.00 | 71 | 1021.2 |
| 20260906031235 | 62 | 188 | 0.0 | 0.0 | 0.00 | 0.00 | 0.00 | 71 | 1021.0 |
| 20260906030729 | 62 | 211 | 0.0 | 0.0 | 0.00 | 0.00 | 0.00 | 70 | 1021.2 |
| 20260906030224 | 63 | 212 | 0.0 | 0.0 | 0.00 | 0.00 | 0.00 | 69 | 1021.2 |
| 20260906025723 | 63 | 200 | 0.0 | 0.0 | 0.00 | 0.00 | 0.00 | 68 | 1021.0 |
| 20260906025218 | 63 | 215 | 0.0 | 0.0 | 0.00 | 0.00 | 0.00 | 68 | 1021.0 |
| 20260906024717 | 64 | 167 | 0.0 | 0.0 | 0.00 | 0.00 | 0.00 | 67 | 1021.1 |
| 20260906024216 | 64 | 150 | 0.0 | 0.0 | 0.00 | 0.00 | 0.00 | 67 | 1021.0 |
| 20260906023712 | 65 | 153 | 0.0 | 0.0 | 0.00 | 0.00 | 0.00 | 64 | 1021.0 |
| 20260906023207 | 65 | 159 | 0.0 | 0.0 | 0.00 | 0.00 | 0.00 | 59 | 1021.0 |
| 20260906022702 | 65 | 202 | 0.0 | 0.0 | 0.00 | 0.00 | 0.00 | 57 | 1020.9 |
| 20260906022158 | 66 | 204 | 0.0 | 0.0 | 0.00 | 0.00 | 0.00 | 55 | 1020.9 |
| 20260906021654 | 67 | 217 | 0.0 | 0.0 | 0.00 | 0.00 | 0.00 | 54 | 1020.9 |
| 20260906021152 | 67 | 217 | 0.0 | 0.0 | 0.00 | 0.00 | 0.00 | 53 | 1020.9 |
| 20260906020647 | 68 | 217 | 0.0 | 0.0 | 0.00 | 0.00 | 0.00 | 53 | 1020.7 |
| 20260906020142 | 68 | 199 | 0.0 | 0.0 | 0.00 | 0.00 | 0.00 | 51 | 1021.0 |
| 20260906015636 | 69 | 191 | 0.0 | 0.0 | 0.00 | 0.00 | 0.00 | 50 | 1021.1 |
| 20260906015134 | 70 | 197 | 0.0 | 0.0 | 0.00 | 0.00 | 0.00 | 49 | 1021.1 |
| 20260906014629 | 70 | 189 | 0.0 | 0.0 | 0.00 | 0.00 | 0.00 | 47 | 1020.8 |
| 20260906014125 | 71 | 127 | 0.0 | 0.0 | 0.00 | 0.00 | 0.00 | 46 | 1021.0 |
| 20260906013620 | 73 | 211 | 0.0 | 0.0 | 0.00 | 0.00 | 0.00 | 44 | 1021.0 |
| 20260906013116 | 72 | 207 | 0.0 | 0.0 | 0.00 | 0.00 | 0.00 | 46 | 1020.8 |
| 20260906012611 | 74 | 208 | 0.0 | 0.0 | 0.00 | 0.00 | 0.00 | 42 | 1020.8 |
| 20260906012111 | 74 | 199 | 0.0 | 0.0 | 0.00 | 0.00 | 0.00 | 43 | 1020.9 |
| 20260906011607 | 74 | 212 | 0.0 | 0.0 | 0.00 | 0.00 | 0.00 | 44 | 1021.0 |
| 20260906011101 | 73 | 201 | 0.0 | 0.0 | 0.00 | 0.00 | 0.00 | 45 | 1020.6 |
| 20260906010556 | 73 | 111 | 0.0 | 3.0 | 0.00 | 0.00 | 0.00 | 45 | 1020.8 |
| 20260906010053 | 74 | 203 | 0.0 | 0.0 | 0.00 | 0.00 | 0.00 | 43 | 1020.9 |
| 20260906005552 | 73 | 165 | 0.0 | 0.0 | 0.00 | 0.00 | 0.00 | 44 | 1020.9 |
| 20260906005051 | 74 | 278 | 1.0 | 3.0 | 0.00 | 0.00 | 0.00 | 44 | 1020.8 |
| 20260906004550 | 74 | 277 | 2.0 | 5.0 | 0.00 | 0.00 | 0.00 | 45 | 1020.6 |
| 20260906004045 | 73 | 259 | 0.0 | 3.0 | 0.00 | 0.00 | 0.00 | 46 | 1020.6 |
| 20260906003540 | 73 | 244 | 0.0 | 0.0 | 0.00 | 0.00 | 0.00 | 45 | 1020.8 |
| 20260906003037 | 72 | 267 | 2.0 | 5.0 | 0.00 | 0.00 | 0.00 | 46 | 1020.6 |
| 20260906002531 | 72 | 174 | 0.0 | 0.0 | 0.00 | 0.00 | 0.00 | 48 | 1020.5 |
| 20260906002026 | 71 | 149 | 2.0 | 3.0 | 0.00 | 0.00 | 0.00 | 48 | 1020.6 |
| 20260906001521 | 71 | 71 | 0.0 | 3.0 | 0.00 | 0.00 | 0.00 | 49 | 1020.9 |
| 20260906001015 | 71 | 99 | 0.0 | 0.0 | 0.00 | 0.00 | 0.00 | 49 | 1020.6 |
| 20260906000512 | 71 | 90 | 0.0 | 3.0 | 0.00 | 0.00 | 0.00 | 50 | 1020.8 |
| 20260906000006 | 72 | 232 | 0.0 | 0.0 | 0.00 | 0.00 | 0.00 | 49 | 1020.7 |
| 20260905235500 | 71 | 192 | 0.0 | 0.0 | 0.00 | 0.00 | 0.00 | 49 | 1020.7 |
| 20260905234955 | 71 | 157 | 0.0 | 0.0 | 0.00 | 0.00 | 0.00 | 50 | 1020.8 |
| 20260905234450 | 72 | 224 | 0.0 | 0.0 | 0.00 | 0.00 | 0.00 | 48 | 1020.7 |
| 20260905233944 | 71 | 170 | 0.0 | 3.0 | 0.00 | 0.00 | 0.00 | 51 | 1020.7 |
| 20260905233440 | 70 | 160 | 1.0 | 5.0 | 0.00 | 0.00 | 0.00 | 52 | 1020.8 |
| 20260905232939 | 70 | 139 | 3.0 | 5.0 | 0.00 | 0.00 | 0.00 | 52 | 1020.7 |
| 20260905232435 | 70 | 146 | 2.0 | 5.0 | 0.00 | 0.00 | 0.00 | 53 | 1020.9 |
| 20260905231931 | 71 | 185 | 0.0 | 0.0 | 0.00 | 0.00 | 0.00 | 51 | 1020.7 |
| 20260905231426 | 70 | 187 | 0.0 | 0.0 | 0.00 | 0.00 | 0.00 | 50 | 1020.6 |
| 20260905230923 | 70 | 123 | 1.0 | 5.0 | 0.00 | 0.00 | 0.00 | 48 | 1020.9 |
| 20260905230421 | 71 | 157 | 0.0 | 0.0 | 0.00 | 0.00 | 0.00 | 48 | 1020.9 |
| 20260905225919 | 70 | 236 | 0.0 | 0.0 | 0.00 | 0.00 | 0.00 | 49 | 1021.0 |
| 20260905225415 | 70 | 174 | 0.0 | 0.0 | 0.00 | 0.00 | 0.00 | 48 | 1021.0 |
| 20260905224909 | 69 | 209 | 0.0 | 0.0 | 0.00 | 0.00 | 0.00 | 49 | 1021.2 |
| 20260905224406 | 69 | 296 | 3.0 | 5.0 | 0.00 | 0.00 | 0.00 | 48 | 1021.2 |
| 20260905223900 | 70 | 293 | 2.0 | 7.0 | 0.00 | 0.00 | 0.00 | 45 | 1021.1 |
| 20260905223358 | 71 | 188 | 0.0 | 0.0 | 0.00 | 0.00 | 0.00 | 45 | 1021.2 |
| 20260905222858 | 69 | 75 | 0.0 | 3.0 | 0.00 | 0.00 | 0.00 | 47 | 1021.3 |
| 20260905222356 | 68 | 266 | 3.0 | 5.0 | 0.00 | 0.00 | 0.00 | 51 | 1021.4 |
| 20260905221853 | 69 | 207 | 0.0 | 5.0 | 0.00 | 0.00 | 0.00 | 51 | 1021.8 |
| 20260905221350 | 69 | 251 | 0.0 | 0.0 | 0.00 | 0.00 | 0.00 | 54 | 1021.6 |